Location: Niverville
(49.6028°N, 97.0419°W)
Time: 03:04:46
(UTC-06:00)

Amateur Radio Satellites - All Passes

Search period start: 25 February 2017 02:34
Search period end: 26 February 2017 02:34
Location: Niverville, 49.6028°N, 97.0419°W

Satellite Date Start Highest point End Downlink Frequencies (MHz)
Time Altitude Azimuth
AO-7 25 Feb 02:45:35 02:51:39 22° 88° (E) 02:57:38 .
Oscar 19 25 Feb 02:47:52 02:52:51 53° 292° (WNW) 02:57:49 437.125/150
KKS-1 25 Feb 02:51:56 02:55:28 24° 62° (ENE) 02:59:00 437.445
SO-50 25 Feb 02:59:45 03:01:44 12° 356° (N) 03:03:42 436.795
CUBESAT XI-V 25 Feb 03:15:46 03:19:33 25° 63° (ENE) 03:23:20 437.345
ITAMSAT 1 25 Feb 03:20:30 03:25:25 39° 97° (E) 03:30:18 435.822/435.867
ITUPSAT 1 25 Feb 03:23:21 03:27:21 26° 266° (W) 03:31:24 437.325
STARS 25 Feb 03:27:06 03:30:38 25° 62° (ENE) 03:34:13 437.465
Gurwin Techsat 1B 25 Feb 03:29:27 03:34:28 43° 294° (WNW) 03:39:28 435.225
BEESAT 25 Feb 03:30:35 03:34:19 22° 268° (W) 03:38:05 436.000
AO-85 25 Feb 03:39:59 03:41:14 11° 110° (ESE) 03:42:28 145.980
MOZHAYETS 4 25 Feb 03:54:16 03:58:26 32° 265° (W) 04:02:38
M-CUBED/EXP-1 PRIME 25 Feb 04:02:36 04:05:40 39° 64° (ENE) 04:08:46 437.505
KKS-1 25 Feb 04:27:31 04:31:46 46° 260° (W) 04:36:05 437.445
Oscar 19 25 Feb 04:30:18 04:31:05 10° 312° (NW) 04:31:51 437.125/150
AO-7 25 Feb 04:37:14 04:45:37 85° 108° (ESE) 04:53:56 .
SO-50 25 Feb 04:40:58 04:44:00 17° 21° (NNE) 04:47:01 436.795
RS-15 25 Feb 04:48:26 04:57:52 27° 259° (W) 05:07:02 29.354- 29.394
CUBESAT XI-V 25 Feb 04:52:12 04:56:42 47° 261° (W) 05:01:12 437.345
ITAMSAT 1 25 Feb 05:00:06 05:04:50 35° 297° (WNW) 05:09:33 435.822/435.867
STARS 25 Feb 05:02:36 05:06:47 43° 261° (W) 05:11:00 437.465
DOVE 4 25 Feb 05:09:15 05:09:38 10° 85° (E) 05:10:01 437.250
STRAND 1 25 Feb 05:10:42 05:13:40 16° 54° (NE) 05:16:41 437.568
AO-85 25 Feb 05:16:33 05:21:01 76° 127° (SE) 05:25:11 145.980
LilacSat-2 25 Feb 05:28:47 05:30:00 11° 87° (E) 05:31:12 437.200
M-CUBED/EXP-1 PRIME 25 Feb 05:38:28 05:40:24 15° 262° (W) 05:42:22 437.505
CUTE-I 25 Feb 06:05:38 06:10:16 28° 94° (E) 06:14:52 437.470
SO-50 25 Feb 06:20:59 06:25:27 53° 44° (NE) 06:29:51 436.795
KAITUO 1B 25 Feb 06:22:08 06:25:34 32° 96° (E) 06:28:58 145.475/437.950
XW-2F 25 Feb 06:26:16 06:29:57 42° 98° (E) 06:33:33 145.980 - 146.000
XW-2D 25 Feb 06:30:42 06:34:28 50° 100° (E) 06:38:10 145.860 - 145.880
AO-7 25 Feb 06:30:43 06:37:35 30° 312° (NW) 06:44:26 .
XW-2B 25 Feb 06:35:43 06:39:31 55° 100° (E) 06:43:15 145.730 - 145.750
BEESAT 3 25 Feb 06:36:39 06:40:12 34° 120° (ESE) 06:43:51 437.485
XW-2A 25 Feb 06:42:52 06:43:46 11° 88° (E) 06:44:40 145.665 - 145.685
DOVE 4 25 Feb 06:43:24 06:48:02 74° 102° (ESE) 06:52:58 437.250
XW-2C 25 Feb 06:44:20 06:48:11 70° 102° (ESE) 06:51:59 145.795 - 145.815
STRAND 1 25 Feb 06:46:57 06:52:06 83° 74° (ENE) 06:57:18 437.568
NUDT-PHONESAT 25 Feb 06:57:10 07:00:59 81° 103° (ESE) 07:04:44 437.300
AO-85 25 Feb 06:58:24 07:01:49 22° 327° (NNW) 07:05:06 145.980
LilacSat-2 25 Feb 07:00:55 07:04:49 74° 284° (WNW) 07:08:37 437.200
O/OREOS (USA 219) 25 Feb 07:07:18 07:10:40 20° 45° (NE) 07:14:01 437.305
BEESAT 2 25 Feb 07:14:17 07:17:55 36° 120° (ESE) 07:21:37 435.950
CUTE 1.7 + AOD 2 25 Feb 07:23:36 07:27:05 24° 93° (E) 07:30:32 437.475
HO-68 25 Feb 07:25:55 07:32:21 34° 95° (E) 07:38:43 435.675
CUBEBUG 2 25 Feb 07:39:35 07:43:06 20° 90° (E) 07:46:35 437.445
CUTE-I 25 Feb 07:45:22 07:50:34 50° 293° (WNW) 07:55:43 437.470
PRISM 25 Feb 07:47:33 07:50:22 18° 61° (ENE) 07:53:11 437.425
UNISAT 6 25 Feb 07:55:25 07:57:12 12° 54° (NE) 07:59:00 437.425
TIGRISAT 25 Feb 07:56:04 07:57:36 12° 53° (NE) 07:59:08 435.000
KAITUO 1B 25 Feb 07:56:23 07:59:29 24° 295° (WNW) 08:02:33 145.475/437.950
XW-2F 25 Feb 08:01:02 08:03:51 20° 297° (WNW) 08:06:38 145.980 - 146.000
SO-50 25 Feb 08:01:55 08:05:39 26° 244° (WSW) 08:09:21 436.795
XW-2D 25 Feb 08:05:44 08:08:19 17° 298° (WNW) 08:10:52 145.860 - 145.880
FO-29 25 Feb 08:09:05 08:14:09 20° 47° (NE) 08:19:23 435.910
XW-2B 25 Feb 08:10:55 08:13:20 16° 299° (WNW) 08:15:43 145.730 - 145.750
AAUSAT CUBESAT 2 25 Feb 08:11:07 08:14:36 26° 94° (E) 08:18:03 437.432
XW-2A 25 Feb 08:13:30 08:16:57 63° 286° (WNW) 08:20:22 145.665 - 145.685
BEESAT 3 25 Feb 08:14:12 08:17:49 34° 320° (NW) 08:21:32 437.485
UWE-3 25 Feb 08:17:05 08:21:09 28° 93° (E) 08:25:09 435.000/436.395/437.385
XW-2C 25 Feb 08:19:58 08:21:52 13° 301° (WNW) 08:23:47 145.795 - 145.815
SEEDS 25 Feb 08:20:52 08:25:02 62° 101° (E) 08:29:10 437.485
DOVE 4 25 Feb 08:22:14 08:25:18 18° 300° (WNW) 08:28:27 437.250
AO-7 25 Feb 08:25:36 08:27:42 11° 337° (NNW) 08:29:48 .
STRAND 1 25 Feb 08:28:52 08:31:57 16° 272° (W) 08:35:02 437.568
NUDT-PHONESAT 25 Feb 08:32:58 08:34:20 12° 302° (WNW) 08:35:42 437.300
ISS 25 Feb 08:33:33 08:36:15 23° 143° (SE) 08:38:58 437.550
ZACube-1 25 Feb 08:38:37 08:42:35 28° 93° (E) 08:46:27 437.345
AO-85 25 Feb 08:43:29 08:43:41 10° 351° (N) 08:43:54 145.980
O/OREOS (USA 219) 25 Feb 08:46:01 08:50:36 74° 245° (WSW) 08:55:10 437.305
BEESAT 2 25 Feb 08:52:04 08:55:44 34° 320° (NW) 08:59:27 435.950
CUTE 1.7 + AOD 2 25 Feb 08:59:07 09:03:02 38° 292° (WNW) 09:06:57 437.475
Tancredo 1 25 Feb 08:59:13 09:02:15 36° 148° (SSE) 09:05:16 437.200
HO-68 25 Feb 09:13:26 09:20:26 58° 295° (WNW) 09:27:23 435.675
CUBEBUG 2 25 Feb 09:15:23 09:20:05 59° 288° (WNW) 09:24:45 437.445
PRISM 25 Feb 09:21:19 09:25:18 54° 259° (W) 09:29:19 437.425
AO-73 25 Feb 09:26:50 09:31:25 73° 101° (ESE) 09:35:54 145.935
UNISAT 6 25 Feb 09:28:33 09:33:04 73° 74° (ENE) 09:37:43 437.425
CUTE-I 25 Feb 09:28:34 09:29:25 10° 313° (NW) 09:30:15 437.470
TIGRISAT 25 Feb 09:28:55 09:33:24 69° 73° (ENE) 09:38:03 435.000
Oscar 11 25 Feb 09:33:49 09:38:11 74° 103° (ESE) 09:42:29 .
DELFI C3 25 Feb 09:44:57 09:48:31 32° 96° (E) 09:52:03 145.870
YUBILEINY 25 Feb 09:45:39 09:53:18 35° 83° (E) 10:00:57 435.215
AAUSAT CUBESAT 2 25 Feb 09:46:24 09:50:08 34° 292° (WNW) 09:53:51 437.432
FO-29 25 Feb 09:50:33 09:57:46 67° 69° (ENE) 10:05:33 435.910
UWE-3 25 Feb 09:53:19 09:57:42 40° 292° (WNW) 10:02:01 435.000/436.395/437.385
BEESAT 3 25 Feb 09:54:59 09:56:35 12° 342° (NNW) 09:58:10 437.485
SEEDS 25 Feb 09:57:36 10:00:17 17° 300° (WNW) 10:02:58 437.485
ISS 25 Feb 10:09:07 10:12:26 90° 141° (SE) 10:15:45 437.550
ZACube-1 25 Feb 10:14:41 10:18:57 39° 292° (WNW) 10:23:09 437.345
DUCHIFAT 1 25 Feb 10:19:40 10:23:00 23° 63° (ENE) 10:26:22 145.980
AO-85 25 Feb 10:24:22 10:25:56 12° 17° (NNE) 10:27:30 145.980
EO-79 25 Feb 10:29:49 10:33:36 33° 66° (ENE) 10:37:26 145.935-145.965
LO-87 25 Feb 10:30:43 10:32:42 14° 90° (E) 10:34:40 145.935 - 145.965
BEESAT 2 25 Feb 10:33:02 10:34:40 12° 343° (NNW) 10:36:18 435.950
Tancredo 1 25 Feb 10:35:09 10:38:24 71° 348° (NNW) 10:41:40 437.200
AIST 2D 25 Feb 10:43:29 10:47:00 64° 74° (ENE) 10:50:34 435.315
NANOSAT C BR1 25 Feb 10:46:35 10:50:35 44° 69° (ENE) 10:54:39 145.865
POLYITAN 1 25 Feb 10:46:57 10:51:03 48° 70° (ENE) 10:55:11 437.675
QB50P2 25 Feb 10:49:52 10:54:00 54° 71° (ENE) 10:58:11 145.880/145.840
CUBEBUG 2 25 Feb 10:54:54 10:55:44 10° 308° (NW) 10:56:33 437.445
Oscar 19 25 Feb 10:55:23 10:56:35 11° 49° (NE) 10:57:49 437.125/150
HO-68 25 Feb 11:02:40 11:06:46 16° 317° (NW) 11:10:52 435.675
AO-73 25 Feb 11:04:10 11:07:08 17° 301° (WNW) 11:10:03 145.935
UNISAT 6 25 Feb 11:07:42 11:10:21 15° 273° (W) 11:13:02 437.425
TIGRISAT 25 Feb 11:07:49 11:10:37 16° 272° (W) 11:13:28 435.000
Oscar 11 25 Feb 11:11:12 11:13:47 16° 301° (WNW) 11:16:20 .
BUGSAT 1 25 Feb 11:16:35 11:20:10 31° 66° (ENE) 11:23:49 437.445
DELFI C3 25 Feb 11:19:56 11:23:13 26° 295° (WNW) 11:26:30 145.870
ESTCUBE 1 25 Feb 11:31:53 11:36:01 35° 96° (E) 11:40:07 437.505/2401.250
FO-29 25 Feb 11:36:56 11:43:19 32° 270° (W) 11:50:10 435.910
Gurwin Techsat 1B 25 Feb 11:38:08 11:41:04 15° 52° (NE) 11:44:00 435.225
YUBILEINY 25 Feb 11:40:52 11:49:37 64° 285° (WNW) 11:58:22 435.215
ISS 25 Feb 11:45:47 11:49:03 58° 2° (N) 11:52:19 437.550
DUCHIFAT 1 25 Feb 11:54:26 11:58:28 43° 262° (W) 12:02:31 145.980
VELOX 1 25 Feb 11:57:39 12:01:11 23° 93° (E) 12:04:42 145.980
AO-7 25 Feb 12:01:19 12:05:51 16° 33° (NNE) 12:10:23 .
LO-87 25 Feb 12:02:57 12:06:28 50° 288° (WNW) 12:09:58 145.935 - 145.965
AO-85 25 Feb 12:03:48 12:07:28 35° 40° (NE) 12:11:06 145.980
EO-79 25 Feb 12:05:41 12:09:24 29° 265° (W) 12:13:09 145.935-145.965
SPROUT 25 Feb 12:05:45 12:09:13 23° 93° (E) 12:12:40 437.525
Tancredo 1 25 Feb 12:11:40 12:14:54 62° 9° (N) 12:18:07 437.200
AIST 2D 25 Feb 12:19:31 12:20:40 11° 272° (W) 12:21:49 435.315
NANOSAT C BR1 25 Feb 12:23:14 12:26:31 22° 268° (W) 12:29:50 145.865
POLYITAN 1 25 Feb 12:23:55 12:27:06 20° 268° (W) 12:30:18 437.675
QB50P2 25 Feb 12:27:14 12:30:08 18° 269° (W) 12:33:05 145.880/145.840
Oscar 19 25 Feb 12:29:51 12:34:52 55° 69° (ENE) 12:39:53 437.125/150
50 SAT 25 Feb 12:31:37 12:34:46 31° 97° (E) 12:37:53 437.505
BUGSAT 1 25 Feb 12:51:57 12:55:31 29° 264° (W) 12:59:10 437.445
ITAMSAT 1 25 Feb 13:05:47 13:09:06 17° 54° (NE) 13:12:27 435.822/435.867
ESTCUBE 1 25 Feb 13:08:50 13:12:46 30° 295° (WNW) 13:16:39 437.505/2401.250
BEESAT 3 25 Feb 13:12:08 13:15:06 19° 30° (NNE) 13:18:04 437.485
Gurwin Techsat 1B 25 Feb 13:14:53 13:20:11 76° 72° (ENE) 13:25:31 435.225
ISS 25 Feb 13:22:20 13:25:38 75° 202° (SSW) 13:28:55 437.550
DX 1 25 Feb 13:24:47 13:29:09 74° 104° (ESE) 13:33:30 434.975-435.025
VELOX 1 25 Feb 13:33:38 13:37:50 44° 291° (WNW) 13:42:02 145.980
UKube-1 25 Feb 13:36:45 13:41:05 72° 102° (ESE) 13:45:24 .
SPROUT 25 Feb 13:41:13 13:45:19 42° 291° (WNW) 13:49:23 437.525
YUBILEINY 25 Feb 13:42:59 13:48:33 18° 311° (NW) 13:54:07 435.215
AO-85 25 Feb 13:44:18 13:47:49 32° 241° (WSW) 13:51:20 145.980
Tancredo 1 25 Feb 13:48:00 13:51:10 51° 207° (SSW) 13:54:18 437.200
AO-7 25 Feb 13:48:49 13:56:39 47° 57° (ENE) 14:04:29 .
BEESAT 2 25 Feb 13:50:28 13:53:33 20° 31° (NNE) 13:56:37 435.950
50 SAT 25 Feb 14:05:04 14:07:45 21° 295° (WNW) 14:10:25 437.505
Oscar 19 25 Feb 14:10:23 14:14:31 24° 268° (W) 14:18:39 437.125/150
ITAMSAT 1 25 Feb 14:42:40 14:47:53 90° 87° (E) 14:53:10 435.822/435.867
BEESAT 3 25 Feb 14:49:14 14:53:16 89° 42° (NE) 14:57:17 437.485
Gurwin Techsat 1B 25 Feb 14:57:11 15:00:44 18° 271° (W) 15:04:19 435.225
ISS 25 Feb 14:59:23 15:01:42 18° 220° (SW) 15:04:00 437.550
DX 1 25 Feb 15:02:10 15:04:49 16° 302° (WNW) 15:07:27 434.975-435.025
UKube-1 25 Feb 15:13:58 15:16:37 16° 302° (WNW) 15:19:16 .
ITUPSAT 1 25 Feb 15:18:13 15:23:00 59° 101° (ESE) 15:27:43 437.325
BEESAT 25 Feb 15:24:42 15:29:30 69° 103° (ESE) 15:34:16 436.000
Tancredo 1 25 Feb 15:26:00 15:26:50 11° 225° (SW) 15:27:40 437.200
BEESAT 2 25 Feb 15:27:47 15:31:52 88° 230° (SW) 15:35:55 435.950
AO-7 25 Feb 15:41:15 15:49:22 53° 258° (WSW) 15:57:31 .
MOZHAYETS 4 25 Feb 15:44:13 15:48:39 43° 98° (E) 15:53:01
CUTE-I 25 Feb 15:55:08 15:57:45 14° 51° (NE) 16:00:23 437.470
KKS-1 25 Feb 16:14:10 16:17:49 24° 94° (E) 16:21:28 437.445
LilacSat-2 25 Feb 16:15:03 16:16:39 12° 58° (ENE) 16:18:13 437.200
HO-68 25 Feb 16:17:19 16:19:45 12° 37° (NE) 16:22:11 435.675
DOVE 4 25 Feb 16:18:05 16:20:29 15° 58° (ENE) 16:22:56 437.250
ITAMSAT 1 25 Feb 16:25:16 16:28:06 15° 273° (W) 16:30:57 435.822/435.867
BEESAT 3 25 Feb 16:28:34 16:30:16 12° 250° (WSW) 16:31:57 437.485
PCSat 25 Feb 16:38:57 16:44:13 56° 119° (ESE) 16:49:32 145.827
CUBESAT XI-V 25 Feb 16:44:14 16:48:21 31° 95° (E) 16:52:26 437.345
STARS 25 Feb 16:47:36 16:51:15 24° 94° (E) 16:54:53 437.465
ITUPSAT 1 25 Feb 16:56:46 17:00:27 22° 300° (WNW) 17:04:07 437.325
RS-15 25 Feb 17:02:59 17:13:51 43° 109° (ESE) 17:25:01 29.354- 29.394
BEESAT 25 Feb 17:03:25 17:06:48 20° 302° (WNW) 17:10:11 436.000
KAITUO 1B 25 Feb 17:06:16 17:09:36 29° 67° (ENE) 17:12:57 145.475/437.950
BEESAT 2 25 Feb 17:07:27 17:09:00 12° 250° (WSW) 17:10:33 435.950
M-CUBED/EXP-1 PRIME 25 Feb 17:11:02 17:13:24 16° 99° (E) 17:15:51 437.505
XW-2F 25 Feb 17:11:08 17:14:43 38° 70° (ENE) 17:18:19 145.980 - 146.000
XW-2D 25 Feb 17:15:49 17:19:30 45° 70° (ENE) 17:23:13 145.860 - 145.880
XW-2B 25 Feb 17:20:49 17:24:33 49° 72° (ENE) 17:28:18 145.730 - 145.750
MOZHAYETS 4 25 Feb 17:21:46 17:25:37 26° 297° (WNW) 17:29:25
XW-2C 25 Feb 17:29:22 17:33:11 63° 74° (ENE) 17:37:02 145.795 - 145.815
NO-84 25 Feb 17:30:26 17:33:23 31° 137° (SE) 17:36:37 435.350 FM
CUTE-I 25 Feb 17:31:34 17:36:52 68° 71° (ENE) 17:42:13 437.470
NUDT-PHONESAT 25 Feb 17:40:22 17:44:07 68° 74° (ENE) 17:47:54 437.300
AO-7 25 Feb 17:42:32 17:44:12 11° 280° (W) 17:45:53 .
SEEDS 25 Feb 17:44:35 17:45:31 11° 55° (NE) 17:46:28 437.485
LilacSat-2 25 Feb 17:46:28 17:50:21 82° 259° (W) 17:54:16 437.200
KKS-1 25 Feb 17:50:19 17:54:34 44° 292° (WNW) 17:58:48 437.445
DOVE 4 25 Feb 17:53:34 17:57:41 69° 258° (WSW) 18:01:55 437.250
HO-68 25 Feb 17:59:03 18:05:39 41° 59° (ENE) 18:12:15 435.675
CUTE 1.7 + AOD 2 25 Feb 18:20:07 18:23:52 31° 66° (ENE) 18:27:38 437.475
CUBESAT XI-V 25 Feb 18:21:35 18:25:45 35° 294° (WNW) 18:29:55 437.345
PCSat 25 Feb 18:22:58 18:27:54 34° 320° (NW) 18:32:52 145.827
STARS 25 Feb 18:23:34 18:27:46 42° 292° (WNW) 18:31:57 437.465
KAITUO 1B 25 Feb 18:40:22 18:43:37 26° 265° (W) 18:46:54 145.475/437.950
CUBEBUG 2 25 Feb 18:41:38 18:45:23 27° 63° (ENE) 18:49:15 437.445
M-CUBED/EXP-1 PRIME 25 Feb 18:44:29 18:48:07 55° 294° (WNW) 18:52:01 437.505
XW-2F 25 Feb 18:46:04 18:49:01 21° 268° (W) 18:51:59 145.980 - 146.000
XW-2A 25 Feb 18:48:40 18:52:05 85° 75° (ENE) 18:55:32 145.665 - 145.685
XW-2D 25 Feb 18:51:16 18:53:56 18° 269° (W) 18:56:38 145.860 - 145.880
AO-73 25 Feb 18:52:26 18:54:51 14° 57° (ENE) 18:57:18 145.935
STRAND 1 25 Feb 18:53:47 18:57:37 21° 90° (E) 19:01:25 437.568
XW-2B 25 Feb 18:56:32 18:59:02 16° 270° (W) 19:01:32 145.730 - 145.750
Oscar 11 25 Feb 18:58:57 19:01:11 14° 57° (ENE) 19:03:26 .
AAUSAT CUBESAT 2 25 Feb 19:05:09 19:08:49 31° 66° (ENE) 19:12:28 437.432
XW-2C 25 Feb 19:05:54 19:07:48 13° 271° (W) 19:09:44 145.795 - 145.815
NO-84 25 Feb 19:07:29 19:10:54 57° 339° (NNW) 19:14:40 435.350 FM
RS-15 25 Feb 19:13:31 19:25:39 75° 315° (NW) 19:38:08 29.354- 29.394
CUTE-I 25 Feb 19:13:32 19:17:26 20° 270° (W) 19:21:22 437.470
SEEDS 25 Feb 19:16:14 19:20:27 74° 75° (ENE) 19:24:41 437.485
NUDT-PHONESAT 25 Feb 19:17:05 19:18:30 12° 272° (W) 19:19:57 437.300
UWE-3 25 Feb 19:17:51 19:21:59 37° 67° (ENE) 19:26:15 435.000/436.395/437.385
ZACube-1 25 Feb 19:38:07 19:42:14 36° 67° (ENE) 19:46:26 437.345
HO-68 25 Feb 19:46:20 19:53:17 51° 260° (W) 20:00:15 435.675
YUBILEINY 25 Feb 19:49:22 19:56:00 23° 55° (NE) 20:02:35 435.215
CUTE 1.7 + AOD 2 25 Feb 19:55:50 19:59:41 32° 265° (W) 20:03:32 437.475
PCSat 25 Feb 20:10:03 20:12:59 14° 344° (NNW) 20:15:56 145.827
CUBEBUG 2 25 Feb 20:17:33 20:21:48 42° 263° (W) 20:26:13 437.445
AO-73 25 Feb 20:25:55 20:30:24 89° 240° (WSW) 20:35:00 145.935
STRAND 1 25 Feb 20:32:07 20:37:15 64° 289° (WNW) 20:42:19 437.568
Oscar 11 25 Feb 20:32:20 20:36:42 86° 258° (WSW) 20:41:06 .
DELFI C3 25 Feb 20:34:24 20:37:59 34° 68° (ENE) 20:41:35 145.870
AAUSAT CUBESAT 2 25 Feb 20:40:35 20:44:15 30° 265° (W) 20:47:56 437.432
NO-84 25 Feb 20:45:40 20:49:05 35° 0° (N) 20:52:48 435.350 FM
UWE-3 25 Feb 20:54:35 20:58:31 29° 266° (W) 21:02:34 435.000/436.395/437.385
SEEDS 25 Feb 20:54:37 20:56:40 13° 272° (W) 20:58:42 437.485
PRISM 25 Feb 20:59:19 21:01:39 15° 90° (E) 21:03:58 437.425
LO-87 25 Feb 21:11:55 21:13:27 12° 60° (ENE) 21:14:58 145.935 - 145.965
ZACube-1 25 Feb 21:14:38 21:18:34 30° 266° (W) 21:22:36 437.345
UNISAT 6 25 Feb 21:17:40 21:19:41 12° 86° (E) 21:21:40 437.425
TIGRISAT 25 Feb 21:18:07 21:19:48 12° 85° (E) 21:21:28 435.000
RS-15 25 Feb 21:28:59 21:40:30 42° 346° (NNW) 21:52:05 29.354- 29.394
YUBILEINY 25 Feb 21:45:32 21:54:21 83° 80° (E) 22:03:03 435.215
PCSat 25 Feb 21:56:11 21:58:48 13° 11° (NNE) 22:01:25 145.827
AO-73 25 Feb 22:05:42 22:07:21 12° 275° (W) 22:09:01 145.935
DELFI C3 25 Feb 22:09:36 22:12:52 24° 266° (W) 22:16:08 145.870
Oscar 11 25 Feb 22:12:35 22:13:31 11° 274° (W) 22:14:29 .
STRAND 1 25 Feb 22:13:20 22:15:28 13° 309° (NW) 22:17:36 437.568
SO-50 25 Feb 22:19:20 22:23:34 35° 119° (ESE) 22:27:45 436.795
NO-84 25 Feb 22:23:27 22:27:17 56° 21° (NNE) 22:31:25 435.350 FM
PRISM 25 Feb 22:33:19 22:37:21 62° 287° (WNW) 22:41:22 437.425
ESTCUBE 1 25 Feb 22:35:13 22:39:37 54° 71° (ENE) 22:44:02 437.505/2401.250
FO-29 25 Feb 22:40:55 22:48:15 44° 94° (E) 22:54:56 435.910
LO-87 25 Feb 22:42:55 22:46:26 65° 259° (W) 22:49:59 145.935 - 145.965
DX 1 25 Feb 22:50:17 22:52:52 16° 58° (ENE) 22:55:27 434.975-435.025
UNISAT 6 25 Feb 22:52:20 22:57:05 89° 98° (E) 23:01:46 437.425
TIGRISAT 25 Feb 22:52:28 22:57:13 84° 105° (ESE) 23:01:54 435.000
VELOX 1 25 Feb 22:58:46 23:02:45 35° 66° (ENE) 23:06:43 145.980
UKube-1 25 Feb 23:01:29 23:03:56 15° 57° (ENE) 23:06:23 .
O/OREOS (USA 219) 25 Feb 23:02:27 23:06:49 55° 111° (ESE) 23:11:15 437.305
SPROUT 25 Feb 23:03:04 23:06:48 30° 66° (ENE) 23:10:35 437.525
50 SAT 25 Feb 23:09:49 23:12:46 26° 67° (ENE) 23:15:43 437.505
DUCHIFAT 1 25 Feb 23:34:17 23:37:39 22° 93° (E) 23:40:58 145.980
AIST 2D 25 Feb 23:37:39 23:41:05 42° 98° (E) 23:44:29 435.315
PCSat 25 Feb 23:39:22 23:44:05 29° 36° (NE) 23:48:46 145.827
YUBILEINY 25 Feb 23:43:26 23:50:08 26° 282° (WNW) 23:56:47 435.215
RS-15 25 Feb 23:44:56 23:56:41 45° 19° (NNE) 00:08:12 29.354- 29.394
EO-79 25 Feb 23:45:23 23:49:17 32° 96° (E) 23:53:08 145.935-145.965
SO-50 25 Feb 23:59:32 00:03:58 43° 319° (NW) 00:08:23 436.795
NO-84 26 Feb 00:01:09 00:04:59 42° 219° (SW) 00:09:04 435.350 FM
NANOSAT C BR1 26 Feb 00:01:53 00:06:00 44° 99° (E) 00:10:05 145.865
POLYITAN 1 26 Feb 00:02:55 00:07:07 49° 99° (E) 00:11:16 437.675
QB50P2 26 Feb 00:05:52 00:10:08 56° 101° (E) 00:14:21 145.880/145.840
ESTCUBE 1 26 Feb 00:13:27 00:16:45 20° 269° (W) 00:20:03 437.505/2401.250
DX 1 26 Feb 00:24:13 00:28:32 74° 256° (WSW) 00:32:53 434.975-435.025
FO-29 26 Feb 00:25:56 00:33:21 50° 296° (WNW) 00:40:11 435.910
BUGSAT 1 26 Feb 00:28:45 00:32:28 29° 95° (E) 00:36:11 437.445
UNISAT 6 26 Feb 00:30:26 00:33:07 15° 304° (WNW) 00:35:47 437.425
TIGRISAT 26 Feb 00:30:26 00:33:16 16° 303° (WNW) 00:36:05 435.000
UKube-1 26 Feb 00:35:06 00:39:24 78° 254° (WSW) 00:43:44 .
VELOX 1 26 Feb 00:35:24 00:39:14 29° 265° (W) 00:43:06 145.980
Oscar 19 26 Feb 00:38:31 00:41:00 13° 86° (E) 00:43:29 437.125/150
SPROUT 26 Feb 00:38:52 00:42:41 32° 264° (W) 00:46:33 437.525
50 SAT 26 Feb 00:42:54 00:45:51 25° 264° (W) 00:48:50 437.505
O/OREOS (USA 219) 26 Feb 00:42:55 00:46:34 24° 312° (NW) 00:50:14 437.305
ITUPSAT 1 26 Feb 00:53:18 00:56:33 18° 57° (ENE) 00:59:47 437.325
BEESAT 26 Feb 00:59:09 01:02:38 20° 59° (ENE) 01:06:08 436.000
DUCHIFAT 1 26 Feb 01:09:26 01:13:31 44° 291° (WNW) 01:17:34 145.980
AIST 2D 26 Feb 01:11:38 01:14:03 17° 297° (WNW) 01:16:26 435.315
MOZHAYETS 4 26 Feb 01:16:40 01:18:11 11° 53° (NE) 01:19:42
EO-79 26 Feb 01:21:14 01:24:59 30° 295° (WNW) 01:28:44 145.935-145.965
PCSat 26 Feb 01:22:33 01:28:00 73° 238° (WSW) 01:33:24 145.827
Gurwin Techsat 1B 26 Feb 01:27:18 01:31:22 22° 91° (E) 01:35:24 435.225
NANOSAT C BR1 26 Feb 01:38:05 01:41:29 23° 297° (WNW) 01:44:53 145.865
POLYITAN 1 26 Feb 01:39:19 01:42:37 22° 298° (WNW) 01:45:54 437.675
QB50P2 26 Feb 01:42:28 01:45:33 19° 299° (WNW) 01:48:37 145.880/145.840
SO-50 26 Feb 01:42:44 01:45:34 16° 342° (NNW) 01:48:24 436.795
RS-15 26 Feb 01:58:36 02:11:05 84° 49° (NE) 02:23:06 29.354- 29.394
BUGSAT 1 26 Feb 02:04:02 02:07:51 33° 294° (WNW) 02:11:41 437.445
FO-29 26 Feb 02:12:34 02:16:34 15° 319° (NW) 02:20:26 435.910
Oscar 19 26 Feb 02:15:56 02:21:06 87° 105° (ESE) 02:26:14 437.125/150
